Tracking 32941 objects as of 15-Jan-2026
HD Live streaming from Space Station
objects crossing your sky now

DMSP 5D-2 F13 DEB

Track DMSP 5D-2 F13 DEB now!
10-day predictions


NORAD ID: 40516
Int'l Code: 1995-015DC
Perigee: 762.0 km
Apogee: 796.4 km
Inclination: 98.8 °
Period: 100.3 minutes
Semi major axis: 7150 km
RCS: Unknown
Launch date: March 24, 1995
Source: United States (US)
Launch site: AIR FORCE WESTERN TEST RANGE (AFWTR)

Note: This is SATELLITE DEBRIS
Your satellite tracking list
Your tracking list is empty




NASA's NSSDC Master Catalog

Two Line Element Set (TLE):
1 40516U 95015DC  26013.02993880  .00003558  00000-0  12385-2 0  9999
2 40516  98.7948  46.7172 0024083 221.4219 138.5140 14.35900115560190
Source of the keplerian elements: AFSPC